JST828 YSSY-YBBN

Flight info

Callsign JST828
Flight time N/A
Altitude 35000
Route TESAT H252 OLSEM Y193 BANDA H252 BN
Aircraft A320/M-SDE3FGHIRWY/LB1

Departure

Time 2026-05-04 04:49
Airport Sydney Kingsford Smith International Airport (YSSY)

Arrival

Time N/A
Airport Brisbane International Airport (YBBN)
Time Latitude Longitude Altitude Speed Heading
2026-05-04 04:16 -33.93524 151.17764 30 ft 0 kts 279°
2026-05-04 04:35 -33.93525 151.17772 30 ft 4 kts 277°
2026-05-04 04:35 -33.93526 151.17804 30 ft 4 kts 261°
2026-05-04 04:36 -33.93518 151.17832 30 ft 4 kts 223°
2026-05-04 04:36 -33.93504 151.17842 30 ft 1 kts 190°
2026-05-04 04:36 -33.93502 151.17842 30 ft 0 kts 190°
2026-05-04 04:40 -33.93510 151.17840 30 ft 3 kts 190°
2026-05-04 04:40 -33.93537 151.17835 30 ft 5 kts 190°
2026-05-04 04:40 -33.93582 151.17826 30 ft 8 kts 189°
2026-05-04 04:40 -33.93644 151.17813 30 ft 10 kts 192°
2026-05-04 04:41 -33.93720 151.17790 30 ft 12 kts 194°
2026-05-04 04:41 -33.93810 151.17764 30 ft 14 kts 190°
2026-05-04 04:41 -33.93916 151.17783 29 ft 17 kts 167°
2026-05-04 04:41 -33.94041 151.17816 29 ft 20 kts 168°
2026-05-04 04:42 -33.94178 151.17851 30 ft 21 kts 168°
2026-05-04 04:42 -33.94330 151.17890 30 ft 23 kts 167°
2026-05-04 04:42 -33.94476 151.17890 30 ft 19 kts 201°
2026-05-04 04:42 -33.94602 151.17903 30 ft 19 kts 168°
2026-05-04 04:43 -33.94735 151.17937 30 ft 20 kts 168°
2026-05-04 04:43 -33.94882 151.17972 30 ft 23 kts 169°
2026-05-04 04:43 -33.95016 151.18009 30 ft 18 kts 166°
2026-05-04 04:43 -33.95098 151.18069 30 ft 14 kts 108°
2026-05-04 04:44 -33.95083 151.18194 30 ft 16 kts 78°
2026-05-04 04:44 -33.95057 151.18338 30 ft 19 kts 77°
2026-05-04 04:44 -33.95050 151.18481 30 ft 16 kts 117°
2026-05-04 04:44 -33.95140 151.18571 30 ft 18 kts 136°
2026-05-04 04:45 -33.95243 151.18678 30 ft 21 kts 147°
2026-05-04 04:45 -33.95386 151.18738 30 ft 23 kts 171°
2026-05-04 04:45 -33.95550 151.18780 30 ft 25 kts 167°
2026-05-04 04:47 -33.96786 151.19064 30 ft 23 kts 178°
2026-05-04 04:47 -33.96953 151.19097 30 ft 25 kts 168°
2026-05-04 04:47 -33.97104 151.19144 30 ft 15 kts 148°
2026-05-04 04:47 -33.97112 151.19273 28 ft 18 kts 77°
2026-05-04 04:48 -33.97045 151.19369 27 ft 16 kts 351°
2026-05-04 04:49 -33.94135 151.18744 1039 ft 145 kts
2026-05-04 04:49 -33.93149 151.19019 1852 ft 149 kts 19°
2026-05-04 04:49 -33.92210 151.19718 2295 ft 170 kts 28°
2026-05-04 04:49 -33.91184 151.20604 2616 ft 193 kts 28°
2026-05-04 04:50 -33.90020 151.21611 3020 ft 217 kts 29°
2026-05-04 04:50 -33.88722 151.22737 3504 ft 242 kts 30°
2026-05-04 04:50 -33.87286 151.23985 4020 ft 267 kts 31°
2026-05-04 04:50 -33.85714 151.25355 4459 ft 291 kts 31°
2026-05-04 04:51 -33.84079 151.26933 5020 ft 312 kts 43°
2026-05-04 04:51 -33.82988 151.29270 5817 ft 330 kts 67°
2026-05-04 04:51 -33.82315 151.31887 6884 ft 325 kts 68°
2026-05-04 04:51 -33.81650 151.34497 7762 ft 326 kts 66°
2026-05-04 04:52 -33.80659 151.36876 8907 ft 308 kts 50°
2026-05-04 04:52 -33.79378 151.38873 10110 ft 299 kts 46°
2026-05-04 04:52 -33.78035 151.40881 10477 ft 319 kts 46°
2026-05-04 04:52 -33.76590 151.43010 10880 ft 334 kts 46°
2026-05-04 04:53 -33.75109 151.45193 11539 ft 340 kts 46°
2026-05-04 04:53 -33.73604 151.47413 12257 ft 344 kts 46°
2026-05-04 04:53 -33.72105 151.49631 12937 ft 349 kts 46°
2026-05-04 04:53 -33.70572 151.51906 13632 ft 352 kts 46°
2026-05-04 04:54 -33.69020 151.54205 14280 ft 356 kts 46°
2026-05-04 04:54 -33.67451 151.56528 14888 ft 359 kts 46°
2026-05-04 04:54 -33.65867 151.58867 15502 ft 362 kts 45°
2026-05-04 04:54 -33.64075 151.60978 16099 ft 360 kts 34°
2026-05-04 04:55 -33.62025 151.62686 16696 ft 360 kts 28°
2026-05-04 04:55 -33.59917 151.64336 17309 ft 363 kts 28°
2026-05-04 04:55 -33.57785 151.66004 17896 ft 368 kts 28°
2026-05-04 04:55 -33.55634 151.67692 18450 ft 372 kts 28°
2026-05-04 04:56 -33.53457 151.69398 18968 ft 376 kts 28°
2026-05-04 04:56 -33.51254 151.71118 19498 ft 379 kts 27°
2026-05-04 04:56 -33.48928 151.72576 20030 ft 377 kts 17°
2026-05-04 04:56 -33.46450 151.73541 20581 ft 375 kts 10°
2026-05-04 04:57 -33.43927 151.74351 21111 ft 377 kts
2026-05-04 04:57 -33.41377 151.75164 21639 ft 380 kts
2026-05-04 04:57 -33.38815 151.75984 22149 ft 382 kts
2026-05-04 04:57 -33.36241 151.76808 22659 ft 384 kts
2026-05-04 04:58 -33.33651 151.77639 23159 ft 387 kts
2026-05-04 04:58 -33.31034 151.78486 23600 ft 391 kts
2026-05-04 04:58 -33.28397 151.79344 23998 ft 394 kts
2026-05-04 04:58 -33.25773 151.80198 24424 ft 396 kts
2026-05-04 04:59 -33.23109 151.81064 24866 ft 398 kts
2026-05-04 04:59 -33.20432 151.81930 25300 ft 399 kts
2026-05-04 04:59 -33.17745 151.82798 25732 ft 401 kts
2026-05-04 04:59 -33.15043 151.83667 26166 ft 402 kts
2026-05-04 05:00 -33.12335 151.84536 26589 ft 404 kts
2026-05-04 05:00 -33.09617 151.85407 26998 ft 405 kts
2026-05-04 05:00 -33.04152 151.87167 27858 ft 408 kts
2026-05-04 05:01 -33.01411 151.88050 28267 ft 409 kts
2026-05-04 05:01 -32.98656 151.88930 28688 ft 410 kts
2026-05-04 05:01 -32.95888 151.89812 29105 ft 412 kts
2026-05-04 05:01 -32.93145 151.90688 29536 ft 413 kts
2026-05-04 05:02 -32.90359 151.91579 29961 ft 415 kts
2026-05-04 05:02 -32.87569 151.92473 30306 ft 416 kts
2026-05-04 05:02 -32.84763 151.93372 30605 ft 419 kts
2026-05-04 05:02 -32.81929 151.94278 30837 ft 424 kts
2026-05-04 05:03 -32.79073 151.95191 31092 ft 427 kts
2026-05-04 05:03 -32.76188 151.96107 31378 ft 430 kts
2026-05-04 05:04 -32.67515 151.98871 32540 ft 431 kts
2026-05-04 05:04 -32.64619 151.99795 32939 ft 432 kts
2026-05-04 05:04 -32.61718 152.00723 33334 ft 432 kts
2026-05-04 05:06 -32.41392 152.07179 35026 ft 430 kts
2026-05-04 05:06 -32.38502 152.08093 35033 ft 429 kts
2026-05-04 05:07 -32.32736 152.09910 35035 ft 429 kts
2026-05-04 05:07 -32.26968 152.11726 35035 ft 428 kts
2026-05-04 05:09 -32.01965 152.19578 35043 ft 429 kts
2026-05-04 05:10 -31.96192 152.21390 35040 ft 429 kts
2026-05-04 05:10 -31.90421 152.23203 35047 ft 429 kts
2026-05-04 05:11 -31.84655 152.25000 35048 ft 429 kts
2026-05-04 05:11 -31.78885 152.26795 35051 ft 429 kts
2026-05-04 05:12 -31.73116 152.28592 35028 ft 429 kts
2026-05-04 05:12 -31.67383 152.30381 35041 ft 429 kts
2026-05-04 05:13 -31.61576 152.32189 35052 ft 429 kts
2026-05-04 05:13 -31.55840 152.33972 35055 ft 429 kts
2026-05-04 05:14 -31.50067 152.35760 35046 ft 429 kts
2026-05-04 05:14 -31.44288 152.37547 35055 ft 429 kts
2026-05-04 05:15 -31.38505 152.39337 35065 ft 430 kts
2026-05-04 05:15 -31.32728 152.41119 35070 ft 430 kts
2026-05-04 05:16 -31.26947 152.42904 35046 ft 430 kts
2026-05-04 05:16 -31.21153 152.44689 35049 ft 431 kts
2026-05-04 05:17 -31.15362 152.46470 35055 ft 430 kts
2026-05-04 05:17 -31.09568 152.48242 35072 ft 431 kts
2026-05-04 05:18 -31.03750 152.50025 35048 ft 432 kts
2026-05-04 05:18 -30.97922 152.51830 35059 ft 433 kts